Cordova, AK

4:05 AM AKDT on August 22, 2017 (GMT -0800)
Cordova-Smith

Weather History for PACV - October, 2012

Change the Weather History Date:

Saturday, October 27, 2012

  Actual Average Record
Temperature  
Mean Temperature 23 °F -  
Max Temperature 37 °F 41 °F 55 °F (2015)
Min Temperature 10 °F 28 °F 9 °F (1982)
Degree Days  
Heating Degree Days 42    
Moisture  
Dew Point 14 °F    
Average Humidity 79    
Maximum Humidity 92    
Minimum Humidity 44    
Precipitation  
Precipitation 0.00 in - - ()
Snow  
Snow 0.00 in - - ()
Snow Depth 4.00 in    
Sea Level Pressure  
Sea Level Pressure 30.04 in    
Wind  
Wind Speed 0 mph (East)    
Max Wind Speed 4 mph    
Max Gust Speed -    
Visibility 10 miles    
Events      
Averages and records for this station are not official NWS values.
T = Trace of Precipitation, MM = Missing Value Source: NWS Daily Summary

Daily Weather History Graph

Daily Weather History Graph

Search for Another Location

Airport or City:

Trip Planner

Search our weather history database for the weather conditions in past years. The results will help you decide how hot, cold, wet, or windy it might be!

Date:

Astronomy

Oct. 27, 2012 Rise Set
Actual Time 8:55 AM AKDT 5:55 PM AKDT
Civil Twilight 8:10 AM AKDT 6:40 PM AKDT
Nautical Twilight 7:20 AM AKDT 7:29 PM AKDT
Astronomical Twilight 6:31 AM AKDT 8:18 PM AKDT
Moon 5:00 PM AKDT (10/27) 6:39 AM AKDT (10/27)
Length of Visible Light 10h 30m
Length of Day
9h 00m
Waxing Gibbous, 96% of the Moon is Illuminated
Oct 27
Waxing Gibbous
Oct 29
Full
Nov 6
Last Quarter
Nov 13
New
Nov 20
First Quarter

Hourly Weather History & Observations

Time (AKDT) Temp. Windchill Dew Point Humidity Pressure Visibility Wind Dir Wind Speed Gust Speed Precip Events Conditions
12:53 AM 16.0 °F - 12.0 °F 84% 30.16 in 10.0 mi Calm Calm - N/A   Clear
1:53 AM 12.9 °F - 10.0 °F 88% 30.16 in 10.0 mi Calm Calm - N/A   Clear
2:53 AM 12.9 °F - 10.0 °F 88% 30.14 in 10.0 mi Calm Calm - N/A   Clear
3:53 AM 12.9 °F - 9.0 °F 84% 30.12 in 10.0 mi Calm Calm - N/A   Clear
4:53 AM 12.0 °F - 9.0 °F 88% 30.11 in 10.0 mi Calm Calm - N/A   Clear
5:53 AM 12.0 °F - 9.0 °F 88% 30.09 in 10.0 mi Calm Calm - N/A   Clear
6:53 AM 10.9 °F 4.7 °F 8.1 °F 88% 30.07 in 10.0 mi East 3.5 mph - N/A   Clear
7:53 AM 12.0 °F 5.9 °F 9.0 °F 88% 30.06 in 10.0 mi NNE 3.5 mph - N/A   Clear
8:53 AM 12.0 °F - 8.1 °F 84% 30.06 in 10.0 mi Calm Calm - N/A   Clear
9:53 AM 12.0 °F - 10.0 °F 92% 30.05 in 10.0 mi Calm Calm - N/A   Clear
10:53 AM 19.9 °F - 17.1 °F 89% 30.04 in 10.0 mi Calm Calm - N/A   Clear
11:53 AM 26.1 °F - 21.9 °F 84% 30.03 in 10.0 mi Calm Calm - N/A   Clear
12:53 PM 32.0 °F - 19.9 °F 61% 30.03 in 10.0 mi Calm Calm - N/A   Clear
1:53 PM 34.0 °F - 17.1 °F 50% 30.02 in 10.0 mi Calm Calm - N/A   Clear
2:53 PM 36.0 °F - 16.0 °F 44% 30.01 in 10.0 mi Calm Calm - N/A   Clear
3:53 PM 35.1 °F 32.2 °F 17.1 °F 48% 29.99 in 10.0 mi SW 3.5 mph - N/A   Clear
4:53 PM 34.0 °F - 19.0 °F 54% 29.98 in 10.0 mi Calm Calm - N/A   Clear
5:53 PM 27.0 °F - 21.0 °F 78% 29.97 in 9.0 mi Calm Calm - N/A   Clear
6:53 PM 23.0 °F - 19.0 °F 85% 29.97 in 10.0 mi Calm Calm - N/A   Clear
7:53 PM 21.0 °F - 18.0 °F 88% 29.97 in 10.0 mi Calm Calm - N/A   Clear
8:53 PM 21.0 °F - 17.1 °F 85% 29.97 in 10.0 mi Calm Calm - N/A   Clear
9:53 PM 18.0 °F - 15.1 °F 88% 29.98 in 10.0 mi Calm Calm - N/A   Clear
10:53 PM 17.1 °F - 14.0 °F 88% 29.98 in 10.0 mi Calm Calm - N/A   Clear
11:53 PM 16.0 °F - 12.0 °F 84% 29.98 in 10.0 mi Calm Calm - N/A   Partly Cloudy